Regional Weather Roundup
Issued by NWS Sioux Falls, SD

Home | Current Version | Previous Version | Graphics & Text | Print | Product List | Glossary Off
Versions: 1 2 3 4 5 6 7 8 9 10 11 12 13 14 15 16 17 18 19 20 21 22 23 24 25 26 27 28 29 30 31 32 33 34 35 36 37 38 39 40 41 42 43 44 45 46 47 48 49 50

008
ASUS43 KFSD 201002
RWRFSD

WEATHER ROUNDUP FOR SE SOUTH DAKOTA/SW MINNESOTA/NW IOWA
NATIONAL WEATHER SERVICE SIOUX FALLS SD
500 AM CDT FRI OCT 20 2017

NOTE: "FAIR" INDICATES FEW OR NO CLOUDS BELOW 12,000 FEET WITH NO
SIGNIFICANT WEATHER AND OR OBSTRUCTIONS TO VISIBILITY.


SDZ038>040-050-052>070-201100-
SOUTHEAST SOUTH DAKOTA

CITY           SKY/WX    TMP DP  RH WIND       PRES   REMARKS
BROOKINGS      FAIR      54  48  80 S13       29.80F
CHAMBERLAIN    CLEAR     60  46  60 S3        29.69F
HURON          PTCLDY    58  48  69 S15G26    29.71F
MADISON        FAIR      54  50  87 S9        29.81F
MITCHELL       CLEAR     57  47  69 S14       29.75F
SIOUX FALLS    FAIR      58  49  72 S12       29.83F
WINNER         FAIR      64  44  48 S23G33    29.68F
YANKTON        FAIR      59  47  64 SE6       29.83F
$$

MNZ071-072-080-081-089-090-097-098-201100-
SOUTHWEST MINNESOTA

CITY           SKY/WX    TMP DP  RH WIND       PRES   REMARKS
FAIRMONT       FAIR      55  50  83 S13       29.92S
JACKSON        FAIR      54  46  76 S9        29.91S
MARSHALL       FAIR      60  49  66 S17       29.80F
MONTEVIDEO     FAIR      55  48  76 SW8       29.78F
PIPESTONE      FAIR      55  46  71 S12       29.83F
REDWOOD FALLS  FAIR      58  48  69 S10       29.83F
TRACY          FAIR      62  50  66 S16G24    29.83S
WORTHINGTON    FAIR      58  48  69 S15       29.89F
$$

IAZ001>003-012>014-020>022-031-032-NEZ013-014-SDZ071-201100-
NORTHWEST IOWA

CITY           SKY/WX    TMP DP  RH WIND       PRES   REMARKS
DENISON        FAIR      55  50  82 S7        29.98S
ESTHERVILLE    FAIR      50  49  96 S10       29.92
LE MARS        FAIR      57  50  77 S13       29.89S
ORANGE CITY    FAIR      55  52  88 S9        29.89F
SHELDON        FAIR      57  48  72 S10       29.88S
SIOUX CITY     FAIR      48  47  96 SE8       29.90F
SPENCER        FAIR      55  49  80 S9        29.92S
STORM LAKE     FAIR      54  48  82 S8        29.95S
$$

ABBREVIATIONS USED IN REMARKS
   TC - TEMPERATURE IN CELSIUS
  WCI - WIND CHILL INDEX
   HX - HEAT INDEX
  VSB - VISIBILITY





USA.gov is the U.S. government's official web portal to all federal, state and local government web resources and services.